Temperature
19 19 19 19 18 18 18 18 17 18 17 17 17 17 17 17 17 17 17 16 16 16 16 16 16 16 16 16 16 16 16 16 16 16 16 16 16 16 16 16 16 16 16
19 18 18 18 18 18 18 18 18 18 17 17 17 17 17 17 17 16 16 16 16 16 16 16 16 16 16 16 16 16 16 15 15 15 15 16 16 16 15 15 15 15 16
18 18 18 18 18 18 18 18 17 17 17 17 17 16 16 16 16 16 16 16 16 16 16 16 16 16 16 16 16 15 15 15 15 15 15 15 15 15 15 15 15 15 15
18 18 18 18 18 18 17 17 17 17 17 17 16 16 16 16 16 16 16 16 16 15 15 15 15 15 15 15 15 15 15 15 15 15 15 15 15 15 15 15 15 15 15
18 18 18 18 18 17 17 17 17 16 16 16 16 16 16 16 16 16 16 15 15 15 15 15 15 15 15 15 15 15 15 14 14 14 14 14 14 14 14 14 14 14 14
18 18 18 17 17 17 17 17 16 16 16 16 16 16 16 16 15 15 15 15 15 15 15 15 15 15 14 14 14 14 14 14 14 14 14 14 14 14 14 13 14 14 13
17 17 17 17 17 16 16 16 16 16 16 16 16 16 16 15 15 15 15 15 15 15 15 15 14 14 14 14 14 14 14 14 14 13 13 14 14 13 13 13 13 13 13
17 17 16 16 16 16 16 16 16 15 15 15 15 15 15 15 15 15 15 14 14 14 14 14 14 14 14 14 14 14 14 14 13 13 13 13 13 13 13 13 13 13 13
17 17 16 16 16 16 16 16 15 15 15 15 15 15 15 15 15 14 14 14 14 14 14 14 14 14 14 13 13 13 13 13 13 13 13 13 13 13 13 13 12 12 12
17 17 16 16 16 16 16 15 15 15 15 15 15 15 15 14 14 14 14 14 14 14 14 14 14 13 13 13 13 13 13 13 13 13 13 13 13 13 12 12 12 12 12
16 16 16 16 15 15 15 15 15 15 15 15 15 14 14 14 14 14 14 14 14 14 14 14 13 13 13 13 13 13 13 13 12 12 12 12 12 12 12 12 12 12 12
16 16 16 15 15 15 15 15 15 15 14 14 14 14 14 14 14 14 14 13 13 13 13 13 13 13 13 13 13 13 12 12 12 12 12 12 12 12 12 12 11 11 11
15 15 15 15 15 15 15 15 14 14 14 14 14 14 14 14 13 13 13 13 13 13 13 13 13 13 12 12 12 12 12 12 12 11 11 11 11 11 11 11 11 11 11
15 15 15 15 15 14 14 14 14 14 14 13 13 13 13 13 13 13 13 13 13 12 12 12 12 12 12 12 12 12 11 11 11 11 11 11 11 11 11 11 11 11 11
15 14 14 14 14 14 14 14 14 14 14 13 13 13 13 13 13 13 13 12 12 12 12 12 12 11 11 11 11 11 11 11 11 10 10 10 10 10 10 10 10 10 10
14 14 14 14 14 14 14 14 13 13 13 13 13 13 13 12 12 12 12 12 12 12 11 11 11 11 11 11 11 11 11 10 10 10 10 10 10 10 10 10 10 10 10
14 14 14 14 14 13 13 13 13 13 13 13 13 12 12 12 12 12 12 11 11 11 11 11 11 11 10 10 10 10 10 10 10 10 10 10 10 10 9 9 9 10 9
14 13 13 13 13 13 13 13 13 13 13 13 12 12 12 12 12 11 11 11 11 11 11 10 10 10 10 10 10 10 10 10 10 9 9 9 9 9 9 9 9 9 9
13 13 13 13 13 13 12 12 12 12 12 12 12 12 12 12 11 11 11 11 10 10 10 10 10 10 10 9 9 9 9 9 9 9 9 9 9 9 9 9 9 9 9
13 12 12 12 12 12 12 12 12 12 12 12 12 11 11 11 11 11 11 11 10 10 10 10 10 9 9 9 9 9 9 9 9 9 9 9 9 9 9 9 8 8 8
12 12 12 12 12 12 12 12 12 12 12 11 11 11 11 11 11 11 10 10 10 10 10 9 9 9 9 9 9 9 9 9 8 8 8 8 8 8 8 8 8 8 7
12 12 12 12 12 12 12 11 11 11 11 11 11 11 11 11 10 10 10 10 10 9 9 9 9 9 9 8 8 8 8 8 8 8 8 8 8 8 8 8 7 7 7
11 11 11 11 11 11 11 11 11 11 11 11 11 11 10 10 10 10 10 10 9 9 9 9 9 9 8 8 8 8 8 8 8 8 8 8 8 8 8 7 7 7 7
11 11 11 11 11 11 11 11 11 11 11 10 10 10 10 10 10 10 9 9 9 9 9 9 8 8 8 8 8 8 8 8 7 7 7 7 7 7 7 7 7 7 6
11 11 11 10 10 10 10 10 10 10 10 10 10 10 10 10 9 9 9 9 9 8 8 8 8 8 8 8 8 8 8 7 7 7 7 7 7 7 7 7 7 6 6
10 10 10 10 10 10 10 10 10 10 10 10 10 10 9 9 9 9 9 8 8 8 8 8 8 8 8 8 7 7 7 7 7 7 7 7 7 7 6 6 6 6 6
Wind_Speed
5 4 3 3 3 3 2 3 3 2 2 2 2 2 2 2 1 1 2 3 3 3 3 3 4 3 2 3 3 3 3 3 5 4 3 3 3 3 3 4 4 4 5
5 4 4 3 3 3 3 3 3 3 2 2 2 2 2 2 2 2 3 3 3 4 4 4 4 3 3 3 3 3 4 4 4 6 4 3 3 3 3 3 3 4 4
4 4 4 3 3 4 3 3 3 2 2 1 1 2 2 2 2 3 3 4 4 5 5 5 5 4 4 4 4 4 4 4 4 4 4 3 3 2 2 3 3 3 4
4 4 3 3 3 3 3 2 2 2 2 2 2 2 2 2 3 3 3 4 5 5 5 5 5 5 5 5 4 5 4 3 3 3 4 3 3 2 2 3 3 3 3
4 3 3 3 3 3 2 2 3 3 3 3 2 2 2 3 3 3 3 4 5 5 5 5 5 6 6 5 4 4 4 3 3 3 4 3 3 2 3 3 3 3 3
3 2 2 2 2 2 3 3 4 3 3 2 2 2 2 3 4 4 3 3 4 4 5 5 5 6 6 6 6 5 5 5 4 4 4 5 5 4 3 3 3 3 3
3 2 1 2 3 3 3 2 2 2 2 2 2 2 3 4 5 4 4 3 4 4 4 4 4 4 4 4 5 6 6 7 7 5 6 6 6 5 4 4 4 4 4
3 2 2 2 3 3 2 2 2 2 2 2 3 2 3 4 5 5 4 3 4 4 4 4 4 5 4 4 4 4 5 5 6 6 6 7 6 5 5 5 4 4 3
3 3 3 2 3 3 3 3 2 2 2 2 2 2 3 4 5 4 3 2 3 4 4 3 3 4 5 4 4 5 5 5 5 5 6 6 6 5 4 3 3 2 3
4 4 3 3 3 3 4 3 2 2 3 2 2 2 3 4 5 4 3 2 3 3 3 3 4 4 5 3 3 4 5 5 4 3 3 4 3 3 4 5 5 4 3
3 2 2 2 3 4 3 3 2 2 2 2 2 2 2 3 4 4 3 1 3 3 3 3 3 5 5 4 3 4 5 4 3 3 3 2 2 2 3 3 4 4 4
2 2 3 3 3 3 3 3 2 3 2 2 2 3 2 2 3 3 4 3 2 2 3 3 3 4 4 4 3 3 3 2 1 1 2 2 2 3 3 3 3 4 4
2 3 3 3 3 2 3 3 2 2 2 2 2 3 3 3 3 4 4 3 3 2 2 3 3 3 3 2 2 2 1 1 1 1 2 3 3 3 2 2 2 3 4
3 3 3 2 2 2 2 2 3 3 3 3 3 3 3 3 3 3 3 3 3 2 2 2 2 2 2 2 2 2 1 1 1 2 3 3 2 2 2 2 2 2 3
2 2 2 2 2 2 2 2 4 4 5 5 4 4 4 4 5 4 2 2 2 2 1 1 2 2 2 3 2 2 2 1 2 2 2 2 2 2 2 2 2 2 2
2 2 2 2 2 2 2 2 2 3 3 5 5 5 4 5 4 3 3 3 3 2 1 0 1 1 2 2 2 3 2 2 2 2 2 2 2 3 3 2 2 2 3
3 2 2 2 2 2 2 2 2 2 2 3 4 4 5 5 4 4 3 2 1 1 1 1 1 2 2 2 2 2 3 3 2 2 2 2 2 2 2 2 2 2 3
2 2 2 3 3 3 3 3 3 3 3 3 3 4 5 5 5 4 2 0 0 0 1 2 2 3 3 3 2 2 2 2 2 2 2 2 2 2 2 2 2 2 3
2 2 2 2 2 3 3 3 3 3 3 3 2 2 3 3 3 3 3 2 3 2 2 3 3 3 3 3 2 2 2 2 2 2 2 2 2 2 2 2 2 2 2
2 3 2 2 2 2 2 2 3 3 3 3 4 3 1 1 1 2 2 3 3 3 3 3 3 3 3 3 2 2 2 2 2 2 2 2 2 2 2 2 1 1 1
2 2 2 1 1 2 2 2 3 3 3 4 4 3 4 3 3 4 3 4 4 4 4 3 2 2 2 2 2 3 3 2 2 2 2 2 2 1 1 1 1 1 1
1 1 1 1 2 2 2 2 2 3 3 4 3 2 3 2 2 3 3 4 4 3 3 2 2 2 2 2 2 2 2 3 3 3 2 2 1 1 1 1 1 1 1
1 1 1 1 2 2 2 2 2 2 3 3 3 2 2 2 3 3 3 3 3 2 2 2 2 2 2 2 2 2 2 3 3 3 2 1 1 1 1 1 1 1 1
1 1 1 1 2 2 2 2 2 2 3 3 2 2 2 2 2 2 2 2 2 1 1 1 1 2 2 2 2 2 3 3 3 2 2 1 1 1 1 1 1 1 1
1 1 2 2 2 2 2 2 2 2 2 2 2 2 2 1 1 1 1 1 1 1 1 1 2 2 2 2 2 2 2 1 1 1 2 1 1 1 1 1 1 1 1
1 1 1 1 2 2 2 2 2 2 2 2 2 2 1 2 1 1 1 1 1 1 1 1 2 2 2 2 2 1 1 1 1 1 1 1 1 0 0 1 1 1 1
Wind_Direction
189 188 192 195 198 200 214 235 238 236 235 238 237 237 247 258 264 247 250 239 237 251 256 246 251 251 253 254 244 237 237 227 251 273 273 280 259 261 273 262 262 256 255
185 181 191 198 199 210 230 241 239 235 231 229 233 236 246 255 254 247 256 252 242 249 253 249 257 256 256 259 253 253 246 234 239 265 277 278 269 267 270 270 275 273 267
177 186 192 200 213 229 244 251 248 246 246 237 230 245 252 250 249 252 253 258 252 252 253 252 257 255 259 263 259 255 250 247 236 251 267 266 272 273 282 280 278 280 278
170 181 200 212 221 232 238 249 255 252 251 256 246 248 254 250 248 250 256 263 260 258 257 254 256 252 252 257 259 255 252 251 250 252 263 266 267 270 257 268 284 282 281
168 179 211 227 217 211 222 243 250 247 249 246 248 261 260 251 255 259 256 263 260 260 261 260 257 256 257 256 261 254 241 245 253 256 262 266 263 261 261 260 270 286 287
165 189 214 231 235 231 230 227 233 241 240 237 256 272 281 277 279 266 262 269 265 259 262 264 263 259 263 268 267 256 238 238 243 248 257 257 261 255 258 253 262 279 284
174 203 218 233 241 236 232 230 233 239 235 247 261 269 280 288 292 283 276 269 268 261 262 265 277 279 269 268 275 271 259 253 240 238 248 253 253 243 238 247 247 250 258
182 202 212 232 240 236 226 231 229 226 229 248 260 267 279 295 306 302 295 276 274 271 269 264 264 272 269 267 274 275 270 264 253 246 243 252 254 242 228 233 240 249 271
197 215 221 224 233 226 229 240 234 230 238 247 261 265 271 291 305 298 293 283 284 286 281 278 274 275 285 285 272 272 280 285 284 267 257 256 258 248 220 210 219 232 269
215 222 228 218 220 221 228 235 231 231 239 248 267 266 267 287 306 310 304 277 279 289 291 291 295 291 290 288 267 261 269 282 295 300 292 288 273 246 212 213 215 223 251
212 211 229 231 238 231 222 223 227 224 235 246 265 284 287 294 313 322 314 278 272 279 291 299 297 301 300 291 270 259 256 264 271 268 278 287 292 281 256 233 224 221 231
190 206 227 237 244 239 218 221 213 209 222 251 266 289 295 304 308 310 306 289 285 273 284 291 297 309 313 304 287 278 272 268 246 255 266 275 280 279 274 262 252 245 244
203 228 239 242 247 243 214 216 221 218 228 246 250 266 280 297 307 310 311 311 310 287 283 291 304 317 326 327 316 314 308 281 249 262 268 274 277 278 281 278 276 264 263
222 246 251 246 261 260 230 214 216 226 231 236 242 255 272 285 293 309 312 312 316 311 306 320 324 330 343 334 337 330 314 280 253 259 269 280 288 288 281 275 275 282 286
219 244 251 243 244 251 247 228 223 229 222 223 231 231 243 266 273 269 268 279 284 280 303 360 15 10 4 357 352 342 328 320 296 286 281 291 294 290 291 289 276 275 270
216 245 247 246 241 237 250 285 273 236 236 225 224 226 243 247 264 264 263 272 278 261 156 315 323 326 325 320 320 319 310 305 303 302 295 286 281 275 280 289 269 264 274
222 245 257 249 241 238 236 241 279 301 265 243 241 242 242 251 253 260 257 270 284 173 170 253 277 289 295 295 295 293 296 299 300 296 288 286 285 281 278 284 285 275 273
230 244 246 243 239 240 238 240 239 248 272 287 275 252 252 255 253 253 243 178 316 188 230 255 269 277 280 282 286 288 296 308 310 298 289 288 284 278 274 277 280 281 280
241 251 250 248 246 245 243 243 246 247 254 268 289 287 259 256 248 229 187 207 232 243 242 251 258 261 264 265 271 275 280 286 296 289 284 284 282 273 273 274 281 292 293
248 254 250 241 243 251 252 250 255 254 257 259 262 264 250 200 245 242 224 229 234 241 242 246 253 256 256 255 260 267 272 278 285 281 281 282 278 268 262 263 268 272 281
241 258 255 250 249 255 260 257 255 254 257 261 260 250 209 220 239 243 239 236 236 242 245 245 249 258 260 263 265 263 261 268 270 269 269 268 262 258 254 245 253 250 257
228 236 245 255 261 261 266 262 260 263 269 273 278 271 212 219 242 248 244 240 238 236 233 233 246 257 257 255 256 261 265 270 269 265 263 265 259 249 240 235 238 231 224
239 261 289 290 278 271 276 276 267 267 272 273 271 269 249 241 242 247 254 249 241 242 239 229 238 268 279 264 243 234 248 263 261 249 241 252 257 243 222 214 215 216 214
213 233 255 275 279 276 273 277 277 272 271 276 273 268 262 258 257 259 263 259 247 250 256 250 248 263 281 282 272 264 260 257 248 229 214 213 225 231 222 214 207 199 196
214 222 230 243 248 260 269 273 275 276 276 277 273 268 266 257 257 268 274 265 245 250 259 264 259 259 267 273 279 278 285 271 249 217 193 187 195 200 198 198 185 176 178
238 242 242 245 248 251 254 259 268 277 280 277 271 263 258 255 252 254 256 250 255 269 277 281 285 284 289 292 301 308 288 279 294 275 192 171 173 167 171 180 168 164 164
Height
1515 1517 1518 1518 1519 1520 1520 1520 1520 1520 1520 1520 1520 1520 1519 1519 1519 1520 1520 1520 1520 1520 1520 1520 1520 1520 1520 1520 1520 1520 1519 1518 1516 1515 1515 1515 1515 1515 1514 1514 1514 1513 1513
1513 1514 1515 1516 1517 1517 1517 1517 1518 1517 1517 1517 1517 1517 1517 1516 1516 1517 1516 1516 1516 1516 1516 1516 1516 1516 1516 1516 1516 1515 1514 1514 1513 1511 1511 1511 1511 1511 1510 1510 1510 1509 1509
1510 1512 1512 1513 1514 1514 1515 1515 1515 1515 1514 1514 1514 1514 1514 1513 1513 1513 1513 1513 1512 1512 1512 1512 1512 1512 1512 1512 1511 1510 1510 1509 1509 1508 1507 1507 1507 1506 1506 1506 1505 1505 1504
1508 1509 1510 1510 1511 1512 1512 1512 1512 1512 1512 1512 1511 1511 1511 1510 1510 1509 1509 1509 1509 1509 1509 1508 1508 1508 1507 1507 1507 1506 1506 1505 1504 1504 1503 1502 1502 1502 1501 1501 1500 1500 1499
1506 1506 1507 1508 1508 1509 1509 1509 1509 1509 1509 1509 1509 1508 1508 1507 1506 1506 1505 1505 1504 1504 1504 1504 1504 1504 1504 1503 1503 1502 1502 1501 1500 1499 1499 1498 1498 1497 1497 1496 1496 1495 1495
1504 1504 1505 1506 1505 1505 1505 1505 1505 1506 1506 1506 1506 1505 1504 1504 1503 1503 1502 1501 1500 1500 1499 1499 1499 1499 1499 1499 1498 1498 1497 1497 1496 1495 1494 1494 1493 1493 1493 1492 1492 1491 1490
1501 1502 1502 1502 1502 1502 1502 1502 1502 1503 1503 1503 1503 1502 1501 1501 1500 1499 1498 1497 1496 1495 1495 1495 1495 1495 1495 1494 1494 1493 1492 1492 1492 1491 1490 1489 1489 1489 1489 1488 1488 1487 1486
1499 1500 1500 1500 1500 1499 1499 1499 1499 1499 1500 1500 1500 1499 1498 1498 1497 1496 1495 1494 1493 1492 1492 1491 1490 1490 1490 1489 1489 1488 1487 1487 1487 1486 1485 1485 1485 1485 1485 1485 1484 1483 1482
1496 1497 1497 1497 1496 1496 1496 1497 1497 1497 1497 1497 1497 1497 1496 1495 1494 1493 1492 1491 1490 1489 1488 1488 1487 1486 1486 1485 1484 1483 1482 1482 1482 1481 1481 1481 1480 1481 1481 1480 1480 1479 1478
1494 1494 1495 1494 1494 1494 1494 1495 1495 1494 1494 1495 1494 1494 1493 1492 1492 1490 1489 1488 1486 1485 1484 1483 1483 1482 1482 1481 1480 1479 1478 1477 1477 1477 1476 1476 1476 1475 1476 1476 1476 1475 1474
1491 1492 1492 1492 1491 1491 1491 1491 1492 1492 1492 1491 1491 1490 1490 1489 1488 1487 1486 1485 1483 1481 1480 1479 1479 1479 1478 1477 1477 1476 1474 1473 1473 1473 1472 1472 1471 1471 1471 1471 1471 1471 1470
1489 1489 1489 1489 1489 1488 1488 1488 1488 1488 1488 1488 1487 1487 1487 1486 1485 1484 1483 1481 1480 1478 1477 1476 1476 1476 1475 1474 1473 1472 1471 1470 1469 1469 1468 1467 1467 1467 1467 1467 1466 1466 1466
1486 1486 1486 1486 1486 1486 1485 1485 1485 1485 1485 1484 1484 1483 1483 1482 1481 1481 1479 1478 1476 1475 1474 1474 1473 1473 1472 1471 1470 1469 1468 1467 1466 1465 1464 1464 1464 1463 1463 1462 1462 1462 1461
1483 1484 1483 1483 1483 1483 1483 1482 1482 1482 1481 1481 1480 1480 1479 1478 1478 1477 1476 1475 1473 1472 1472 1471 1470 1470 1469 1468 1467 1466 1465 1464 1463 1462 1461 1460 1460 1460 1459 1459 1458 1457 1456
1481 1481 1481 1481 1481 1480 1480 1480 1479 1479 1478 1478 1477 1476 1476 1474 1474 1474 1472 1471 1470 1469 1469 1468 1467 1466 1465 1464 1463 1462 1462 1461 1460 1459 1458 1457 1456 1456 1455 1455 1454 1453 1452
1477 1477 1477 1477 1477 1477 1477 1476 1476 1476 1475 1475 1474 1473 1472 1472 1471 1470 1469 1468 1468 1467 1466 1464 1464 1463 1462 1461 1460 1459 1458 1457 1456 1456 1455 1454 1453 1452 1451 1451 1450 1450 1449
1474 1474 1474 1474 1474 1474 1473 1472 1472 1472 1472 1472 1471 1470 1469 1468 1468 1467 1467 1466 1465 1464 1463 1462 1461 1461 1460 1459 1458 1456 1455 1454 1453 1453 1452 1451 1450 1449 1448 1448 1447 1446 1445
1471 1471 1471 1470 1471 1471 1470 1469 1469 1468 1468 1467 1468 1467 1466 1466 1465 1464 1464 1463 1462 1461 1460 1460 1459 1458 1457 1456 1455 1454 1453 1452 1451 1450 1449 1448 1447 1446 1445 1444 1444 1443 1442
1468 1468 1468 1468 1468 1467 1467 1466 1465 1465 1464 1464 1463 1463 1463 1462 1462 1461 1460 1459 1458 1457 1457 1457 1456 1455 1454 1453 1452 1451 1450 1449 1448 1447 1446 1445 1445 1444 1442 1442 1441 1440 1439
1465 1465 1465 1464 1464 1464 1463 1463 1462 1461 1461 1461 1460 1460 1459 1459 1458 1457 1456 1455 1455 1455 1454 1453 1453 1452 1451 1450 1449 1448 1447 1446 1445 1444 1443 1443 1442 1441 1440 1439 1439 1438 1437
1462 1462 1462 1461 1461 1460 1460 1459 1459 1458 1458 1457 1457 1456 1456 1455 1454 1454 1453 1453 1452 1452 1451 1450 1450 1449 1448 1447 1446 1445 1444 1443 1442 1441 1440 1440 1439 1438 1438 1437 1437 1436 1436
1459 1459 1459 1458 1458 1458 1457 1457 1456 1455 1455 1454 1453 1453 1452 1452 1451 1451 1450 1450 1449 1449 1448 1447 1446 1446 1445 1445 1444 1443 1441 1440 1439 1439 1438 1437 1436 1436 1435 1435 1434 1434 1434
1456 1456 1456 1456 1455 1455 1455 1454 1453 1453 1452 1451 1450 1450 1449 1449 1448 1448 1447 1447 1446 1446 1445 1445 1444 1443 1443 1442 1441 1440 1439 1438 1437 1436 1435 1434 1434 1433 1433 1432 1432 1432 1432
1453 1453 1453 1453 1453 1452 1452 1451 1451 1450 1449 1449 1448 1448 1447 1447 1446 1445 1445 1444 1443 1443 1442 1442 1442 1441 1440 1440 1439 1438 1437 1436 1435 1434 1433 1432 1431 1431 1430 1430 1430 1430 1430
1451 1450 1450 1450 1449 1449 1449 1449 1448 1448 1447 1447 1446 1446 1445 1444 1443 1443 1442 1441 1441 1441 1440 1440 1439 1439 1438 1437 1436 1435 1434 1434 1433 1432 1431 1430 1429 1428 1428 1428 1428 1429 1429
1448 1448 1448 1447 1447 1447 1446 1446 1446 1445 1445 1444 1444 1443 1443 1442 1442 1441 1440 1440 1439 1439 1438 1438 1437 1436 1436 1435 1434 1433 1432 1431 1430 1430 1429 1428 1427 1426 1426 1426 1426 1427 1427